Aurora, IL

7:56 AM CDT on May 27, 2018 (GMT -0500)
Aurora Municipal

Weather History for KARR - November, 2012

Change the Weather History Date:

Sunday, November 18, 2012

  Actual Average Record
Temperature  
Mean Temperature 41 °F 37 °F  
Max Temperature 54 °F 46 °F 71 °F (1999)
Min Temperature 28 °F 27 °F 9 °F (2014)
Degree Days  
Heating Degree Days 24 28  
Month to date heating degree days 474 429  
Since 1 July heating degree days 1165 1036  
Cooling Degree Days 0 0  
Month to date cooling degree days 0 0  
Year to date cooling degree days 1007 655  
Moisture  
Dew Point 33 °F    
Average Humidity 71    
Maximum Humidity 92    
Minimum Humidity 50    
Precipitation  
Precipitation 0.00 in 0.11 in 1.28 in (2003)
Month to date precipitation 0.86 2.03  
Year to date precipitation 22.35 33.79  
Sea Level Pressure  
Sea Level Pressure 30.40 in    
Wind  
Wind Speed 5 mph (SE)    
Max Wind Speed 12 mph    
Max Gust Speed 14 mph    
Visibility 7 miles    
Events      
T = Trace of Precipitation, MM = Missing Value Source: NWS Daily Summary

Daily Weather History Graph

Daily Weather History Graph

Search for Another Location

Airport or City:

Astronomy

Nov. 18, 2012 Rise Set
Actual Time 6:47 AM CST 4:30 PM CST
Civil Twilight 6:17 AM CST 5:00 PM CST
Nautical Twilight 5:43 AM CST 5:34 PM CST
Astronomical Twilight 5:10 AM CST 6:07 PM CST
Moon 11:13 AM CST (11/18) 9:51 PM CST (11/18)
Length of Visible Light 10h 43m
Length of Day
9h 43m
Waxing Crescent, 30% of the Moon is Illuminated
Nov 18
Waxing Crescent
Nov 20
First Quarter
Nov 28
Full
Dec 6
Last Quarter
Dec 13
New

Hourly Weather History & Observations

Time (CST) Temp. Windchill Dew Point Humidity Pressure Visibility Wind Dir Wind Speed Gust Speed Precip Events Conditions
12:52 AM 35.1 °F - 30.0 °F 82% 30.45 in 6.0 mi Calm Calm - N/A   Haze
1:52 AM 30.0 °F 25.2 °F 27.0 °F 88% 30.45 in 4.0 mi East 4.6 mph - N/A   Clear
2:52 AM 30.9 °F 25.2 °F 28.0 °F 89% 30.44 in 5.0 mi SE 5.8 mph - N/A   Clear
3:52 AM 32.0 °F 25.6 °F 28.9 °F 88% 30.43 in 5.0 mi SE 6.9 mph - N/A   Clear
4:52 AM 32.0 °F 26.4 °F 28.9 °F 88% 30.44 in 5.0 mi SE 5.8 mph - N/A   Clear
5:52 AM 32.0 °F - 28.9 °F 88% 30.43 in 5.0 mi Calm Calm - N/A   Clear
6:52 AM 30.0 °F - 28.0 °F 92% 30.45 in 4.0 mi Calm Calm - N/A   Clear
7:52 AM 34.0 °F 28.8 °F 30.9 °F 89% 30.45 in 4.0 mi ESE 5.8 mph - N/A   Clear
8:52 AM 39.9 °F 35.1 °F 34.0 °F 79% 30.45 in 5.0 mi SE 6.9 mph - N/A   Haze
9:52 AM 45.0 °F 40.6 °F 34.0 °F 65% 30.44 in 7.0 mi SSE 8.1 mph - N/A   Clear
10:52 AM 48.0 °F - 35.1 °F 61% 30.43 in 8.0 mi South 8.1 mph - N/A   Clear
11:52 AM 51.1 °F - 35.1 °F 54% 30.40 in 9.0 mi SSE 8.1 mph - N/A   Clear
12:52 PM 53.1 °F - 36.0 °F 52% 30.38 in 9.0 mi SE 8.1 mph - N/A   Clear
1:52 PM 53.1 °F - 36.0 °F 52% 30.37 in 9.0 mi SE 10.4 mph - N/A   Clear
2:52 PM 53.1 °F - 37.0 °F 55% 30.36 in 9.0 mi SE 5.8 mph - N/A   Clear
3:52 PM 50.0 °F - 37.0 °F 61% 30.35 in 9.0 mi ESE 4.6 mph - N/A   Clear
4:52 PM 44.1 °F 41.5 °F 35.1 °F 71% 30.36 in 7.0 mi East 4.6 mph - N/A   Clear
5:52 PM 41.0 °F - 34.0 °F 76% 30.37 in 8.0 mi Calm Calm - N/A   Clear
6:52 PM 42.1 °F 37.7 °F 34.0 °F 73% 30.36 in 8.0 mi ESE 6.9 mph - N/A   Clear
7:52 PM 41.0 °F 37.1 °F 33.1 °F 73% 30.37 in 8.0 mi SE 5.8 mph - N/A   Clear
8:52 PM 39.0 °F 35.7 °F 32.0 °F 76% 30.36 in 8.0 mi SE 4.6 mph - N/A   Clear
9:52 PM 39.0 °F 33.4 °F 32.0 °F 76% 30.34 in 8.0 mi SE 8.1 mph - N/A   Clear
10:52 PM 39.0 °F 35.7 °F 32.0 °F 76% 30.33 in 9.0 mi SE 4.6 mph - N/A   Clear
11:52 PM 39.9 °F 36.7 °F 33.1 °F 77% 30.33 in 9.0 mi SE 4.6 mph - N/A   Clear